Regional Weather Roundup
Issued by NWS

Home | Current Version | Previous Version | Graphics & Text | Print | Product List | Glossary On
Versions: 1 2 3 4 5 6 7 8 9 10 11 12 13 14 15 16 17 18 19 20 21 22 23 24 25 26 27 28 29 30 31 32 33 34 35 36 37 38 39 40 41 42 43 44 45 46 47 48 49 50
000
ASUS45 KTFX 180510
RWRMT
MONTANA REGIONAL WEATHER ROUNDUP
NATIONAL WEATHER SERVICE GREAT FALLS MT
1000 PM MST FRI NOV 17 2017

NOTE: "FAIR" INDICATES FEW OR NO CLOUDS BELOW 12000 FEET WITH NO
SIGNIFICANT WEATHER AND/OR OBSTRUCTIONS TO VISIBILITY.

MTZ001>007-043-180600-
WEST OF THE DIVIDE

CITY           SKY/WX    TMP DP  RH WIND       PRES   REMARKS
KALISPELL      CLOUDY    35  27  72 SW8       30.11R WCI  29
MISSOULA       CLOUDY    33  26  75 CALM      30.17R
BUTTE          FAIR      22  12  65 NW6       30.09R WCI  14
MULLAN PASS    CLOUDY    22  18  85 W6        30.08R WCI  14
ANACONDA         N/A     28  12  50 W12G17    30.12R WCI  18
EUREKA           N/A     36  23  60 MISG      30.09R
HAMILTON         N/A     36  21  55 SE14      30.19R WCI  27
LIBBY            N/A     34  30  86 CALM      30.10R
PLAINS           N/A     38  25  60 CALM      30.15R
RONAN            N/A     34  25  70 SE2       30.17R
$$

MTZ008-052>055-180600-
SOUTHWEST MONTANA

CITY           SKY/WX    TMP DP  RH WIND       PRES   REMARKS
BOZEMAN        CLOUDY    30  16  56 W9        30.10R WCI  22
DILLON         FAIR      27   9  46 SW17G24   30.11R WCI  14
W YELLOWSTONE  FAIR      19   9  63 SW8G14    30.08R WCI   9
ENNIS          PTCLDY    28  10  47 SW7       30.16R WCI  21
TWIN BRIDGES     N/A     30  12  47 CALM      30.09R
$$

MTZ009-010-012-014-046-048-049-054-180600-
EAST SLOPES AND CENTRAL MONTANA

CITY           SKY/WX    TMP DP  RH WIND       PRES   REMARKS
CUT BANK       FAIR      30  18  60 W22       29.89R WCI  17
GREAT FALLS    FAIR      29  14  53 SW14      29.95R WCI  18
MALMSTROM AFB  FAIR      33  15  48 W17G23    29.96R WCI  22
HELENA         CLOUDY    35  19  52 W17G29    30.06R WCI  25
BOWMANS CRNR   FAIR      28  16  61 SW15      29.95R WCI  16
CHOTEAU          N/A     34  14  44 W13G18    29.93R WCI  25
FAIRFIELD      FAIR      31  16  54 W16       29.92R WCI  20
POWER          FAIR      23  15  73 S7        29.94R WCI  15
RAYNESFORD     FAIR      32  13  45 SW20G26   29.95R WCI  21
ULM            FAIR      32  17  54 SW17      29.97R WCI  21
$$

MTZ011-013-016-021-045-047-050-051-180600-
NORTH CENTRAL MONTANA

CITY           SKY/WX    TMP DP  RH WIND       PRES   REMARKS
HAVRE          FAIR      14  11  87 NW6       29.98R WCI   5
LEWISTOWN      FAIR      28  17  63 W14       29.94R WCI  17
N BAR RANCH    MOCLDY    32  12  43 W15G24    29.95R WCI  22
CHINOOK          N/A     19  14  79 W9        29.98R WCI   9
DENTON         FAIR      31  18  59 MISG      29.90R
GEYSER         FAIR      28  16  61 W7        29.95R WCI  21
GRASS RANGE    FAIR      32  17  54 W21G26    29.90R WCI  20
STANFORD       FAIR      30  14  51 W14G23    29.93R WCI  19
WINIFRED       FAIR      31  18  58 W14       29.91R WCI  21
$$

MTZ017>020-022>027-061-062-180600-
NORTHEAST MONTANA

CITY           SKY/WX    TMP DP  RH WIND       PRES   REMARKS
GLASGOW        MOCLDY    17  14  88 NW6       29.90R WCI   9
GLENDIVE       FAIR      27  22  81 W6        29.85R WCI  20
JORDAN           N/A     31  24  75 W10       29.88R WCI  22
SIDNEY         FAIR      19  14  81 NW14      29.87R WCI   6
WOLF POINT     FAIR      17   9  70 NE8       29.92R WCI   7
MALTA          CLOUDY    19  12  73 N6        29.97R WCI  11
PLENTYWOOD       N/A      9   3  78 CALM      29.88R
POPLAR           N/A     16   9  73 N8        29.91R WCI   5
SCOBEY           N/A      4  -8  57 CALM      29.88R
$$

MTZ028>42-056>058-180600-
SOUTHCENTRAL AND SOUTHEAST MONTANA

CITY           SKY/WX    TMP DP  RH WIND       PRES   REMARKS
BAKER          MOCLDY    30  25  81 W9        29.84R WCI  22
BILLINGS       FAIR      33  19  56 W17       29.99R WCI  22
LIVINGSTON     FAIR      32  15  49 W26G35    30.02R WCI  18
MILES CITY     CLOUDY    33  26  75 W3        29.89R
BIG TIMBER     CLOUDY    32  14  47 W21G28    30.04R WCI  20
EKALAKA          N/A     28  22  78 W6        29.84R WCI  22
FORSYTH          N/A     36  21  55 W9        29.93R WCI  29
HARLOWTON      FAIR      28  17  62 W28       29.96R WCI  13
LAUREL           N/A     34  19  55 W14G20    30.01R WCI  24
ROUNDUP          N/A     33  16  50 SW16      29.87R WCI  22
$$

REGIONAL REPORTS...DAKOTAS

CITY           SKY/WX    TMP DP  RH WIND       PRES   REMARKS
WILLISTON      FAIR      13   8  81 N13       29.88R WCI  -2
MINOT          FAIR      17  11  77 NW10      29.81R WCI   5
DICKINSON      FAIR      24  23  96 W9        29.77R WCI  14
BEACH          FAIR      28  23  80 W10       29.84R WCI  19
CROSBY         FAIR       7   3  85 NW15G21   29.88R WCI -11
TIOGA          FAIR      10   9  92 NW3       29.84R
WATFORD CITY   FAIR      18  12  79 NE7       29.82R WCI   8
BISMARCK       CLOUDY    29  26  89 SW7       29.80R WCI  22
GRAND FORKS    MOCLDY    15  13  91 W6        29.82R WCI   6
FARGO          FAIR      23  16  74 N7        29.79S WCI  15
BUFFALO SD       N/A     32  27  81 NW18      29.77R WCI  20
RAPID CITY     FAIR      38  29  70 NW17      29.83R WCI  28
$$

REGIONAL REPORTS...WYOMING/IDAHO/WASHINGTON

CITY           SKY/WX    TMP DP  RH WIND       PRES   REMARKS
GILLETTE       FAIR      32  23  69 NW14      29.92R WCI  22
SHERIDAN       FAIR      27  19  72 NW8       29.96R WCI  19
BUFFALO WY     FAIR      30  12  47 NW21      29.94R WCI  17
CODY           FAIR      29  14  53 W3        30.02R
YELLOWSTONE LA   N/A      5   3  91 CALM      30.08R
IDAHO FALLS    FAIR      28  21  75 SW13      30.21R WCI  17
SALMON         FAIR      31  17  56 CALM      30.22R
BOISE          FAIR      32  22  66 W5        30.30R
SPOKANE        MOCLDY    35  28  75 S13       30.18R WCI  26
$$

REGIONAL REPORTS...ALBERTA

CITY           SKY/WX    TMP DP  RH WIND       PRES   REMARKS
EDMONTON       LGT SNOW  10   7  85 SW6       29.89  WCI   1
CALGARY        CRYSTALS   7   3  85 S7        29.87R FOG     WCI  -5
LETHBRIDGE     CLEAR      3   0  85 S3        29.95R
MEDICINE HAT   CLEAR      5   1  85 SW5       30.01R
$$

REGIONAL REPORTS...SASKATCHEWAN

CITY           SKY/WX    TMP DP  RH WIND       PRES   REMARKS
SWIFT CURRENT  CLEAR      9   5  85 W13       29.89R WCI  -7
REGINA         CLOUDY    10   9  92 W9        29.88R WCI  -2
SASKATOON      CLEAR     -2  -8  78 W8        29.94R WCI -17
$$



USA.gov is the U.S. government's official web portal to all federal, state and local government web resources and services.